FW1110 Weather Reports


time (UTC)temp
C
wind
direction
speed
KPH
gust
KPH
rain 1hr
cm
rain 24hr
cm
rain mn
cm
humidity
%
barometer
mb
20260510164533 25 51 6.4 19.3 0.00 2.11 0.03 92 1017.0
20260510163031 25 360 6.4 17.7 0.00 2.11 0.03 92 1017.0
20260510161529 25 5 3.2 17.7 0.00 2.11 0.03 93 1017.1
20260510160036 25 46 11.3 19.3 0.00 2.11 0.03 90 1017.1
20260510154530 24 77 4.8 19.3 0.00 2.54 0.03 92 1016.8
20260510153024 23 44 4.8 17.7 0.00 2.54 0.03 95 1016.9
20260510151526 23 86 3.2 16.1 0.00 2.54 0.03 96 1016.9
20260510150016 22 19 11.3 20.9 0.00 2.54 0.03 97 1017.1
20260510144600 22 22 6.4 17.7 0.00 2.72 0.03 98 1017.3
20260510143101 22 360 4.8 14.5 0.00 2.72 0.03 99 1017.2
20260510141555 22 88 3.2 9.7 0.00 2.72 0.03 100 1017.1
20260510140052 21 91 3.2 12.9 0.00 2.72 0.03 100 1016.9
20260510134550 21 35 1.6 9.7 0.00 3.81 0.03 100 1016.9
20260510133047 21 67 1.6 14.5 0.00 3.81 0.03 100 1016.9
20260510131544 21 78 0.0 11.3 0.00 3.81 0.03 100 1016.6
20260510130043 20 49 1.6 17.7 0.00 3.81 0.03 100 1016.3
20260510124540 20 63 1.6 9.7 0.00 3.81 0.03 100 1016.1
20260510123038 20 55 3.2 11.3 0.00 3.81 0.03 100 1015.8
20260510121536 20 53 0.0 4.8 0.00 3.81 0.03 100 1015.6
20260510120035 20 119 0.0 3.2 0.00 3.81 0.03 100 1015.4
20260510114534 20 94 0.0 6.4 0.00 3.81 0.03 100 1015.2
20260510113033 20 71 0.0 3.2 0.00 3.81 0.03 100 1015.0
20260510111529 20 64 0.0 6.4 0.00 3.81 0.03 100 1014.7
20260510110033 20 130 0.0 8.0 0.00 3.81 0.03 100 1014.4
20260510104525 20 63 1.6 6.4 0.00 3.81 0.03 100 1014.2
20260510103024 20 89 0.0 6.4 0.00 3.81 0.03 100 1013.8
20260510101522 20 46 1.6 3.2 0.00 3.81 0.03 100 1013.7
20260510100022 20 42 1.6 4.8 0.00 3.81 0.03 100 1013.5
20260510094535 20 80 0.0 4.8 0.00 3.81 0.03 100 1013.6
20260510093021 20 86 1.6 12.9 0.00 3.81 0.03 100 1013.5
20260510091522 20 54 3.2 8.0 0.00 3.81 0.03 100 1013.4
20260510090020 20 58 4.8 14.5 0.03 3.81 0.03 100 1013.4
20260510084520 20 20 6.4 16.1 0.03 3.81 0.03 100 1013.4
20260510083027 20 36 6.4 11.3 0.03 3.81 0.03 100 1013.4
20260510081516 20 45 4.8 16.1 0.03 3.81 0.03 100 1013.3
20260510080022 20 40 6.4 12.9 0.00 3.78 0.00 100 1013.2
20260510074512 20 360 4.8 9.7 0.00 3.78 0.00 100 1013.1
20260510073018 20 46 3.2 8.0 0.00 3.78 0.00 100 1013.0
20260510071510 20 55 1.6 6.4 0.00 3.78 0.00 100 1012.8
20260510070009 20 53 1.6 6.4 0.00 3.78 0.00 100 1012.8
20260510064508 19 56 3.2 4.8 0.00 3.78 0.00 100 1013.1
20260510063009 19 48 0.0 4.8 0.00 3.78 0.00 100 1013.0
20260510061509 20 129 0.0 4.8 0.00 3.78 0.00 100 1012.9
20260510060009 20 63 0.0 8.0 0.00 3.78 0.00 100 1013.2
20260510054508 20 120 0.0 0.0 0.00 3.78 0.00 100 1013.0
20260510053002 20 137 1.6 11.3 0.00 3.78 0.00 100 1012.9
20260510051606 20 132 0.0 6.4 0.00 3.78 0.00 100 1012.9
20260510050104 20 143 4.8 12.9 0.00 3.78 0.00 100 1012.9
20260510044617 20 116 3.2 12.9 0.00 3.78 3.78 100 1012.8
20260510043058 20 148 8.0 14.5 0.00 3.78 3.78 100 1013.0
20260510041557 20 152 3.2 16.1 0.00 3.78 3.78 100 1013.3
20260510040059 20 153 6.4 14.5 0.00 3.78 3.78 100 1013.2
20260510034556 20 135 8.0 17.7 0.00 3.78 3.78 100 1013.0
20260510033107 20 153 8.0 12.9 0.00 3.78 3.78 100 1013.3
20260510031555 20 204 0.0 4.8 0.00 3.78 3.78 100 1013.8
20260510024555 20 201 0.0 3.2 0.00 3.78 3.78 100 1013.9
20260510023054 20 167 0.0 4.8 0.00 3.78 3.78 100 1013.6
20260510021559 20 360 1.6 8.0 0.00 3.78 3.78 100 1013.3
20260510020052 20 138 8.0 12.9 0.00 3.78 3.78 100 1013.1
20260510014553 20 164 4.8 12.9 0.00 3.78 3.78 100 1013.1
20260510013051 20 128 4.8 11.3 0.00 3.78 3.78 100 1012.8
20260510011551 20 142 6.4 14.5 0.00 3.78 3.78 100 1012.7
20260510010049 20 150 8.0 14.5 0.00 3.78 3.78 100 1012.7
20260510004551 20 126 8.0 14.5 0.00 3.86 3.78 100 1012.7
20260510003050 20 169 6.4 12.9 0.00 3.86 3.78 100 1012.6
20260510001547 20 150 4.8 9.7 0.05 3.86 3.78 100 1012.7
20260510000048 20 155 3.2 12.9 0.10 3.86 3.78 100 1012.7
20260509234546 20 160 3.2 11.3 0.10 3.86 3.78 100 1012.7
20260509233045 20 360 4.8 11.3 0.10 3.86 3.78 100 1012.4
20260509231546 20 168 3.2 12.9 0.05 3.81 3.73 100 1012.9
20260509230044 20 128 1.6 11.3 0.00 3.76 3.68 100 1012.7
20260509224544 20 169 1.6 11.3 0.03 3.76 3.68 100 1012.5
20260509223043 20 134 4.8 11.3 0.03 3.76 3.68 100 1012.4
20260509221542 20 161 3.2 6.4 0.03 3.76 3.68 100 1011.7
20260509220041 21 192 1.6 6.4 0.03 3.76 3.68 100 1012.1
20260509214541 20 199 1.6 9.7 0.00 4.01 3.66 100 1012.4
20260509213043 20 190 4.8 16.1 0.00 4.01 3.66 100 1012.6
20260509211538 20 162 11.3 19.3 0.03 4.01 3.66 100 1011.5
20260509210049 20 149 6.4 14.5 0.05 4.01 3.66 100 1011.7
20260509204541 20 161 6.4 16.1 0.10 5.41 3.66 100 1011.4
20260509203041 20 139 6.4 12.9 0.15 5.41 3.66 100 1011.9
20260509201537 20 168 3.2 11.3 0.18 5.38 3.63 100 1012.4
20260509200035 20 144 3.2 8.0 0.25 5.36 3.61 100 1013.2
20260509194534 19 122 3.2 8.0 0.25 5.31 3.56 100 1013.0
20260509193040 19 151 4.8 14.5 0.23 5.23 3.51 100 1012.9
20260509191539 19 150 3.2 8.0 0.20 5.18 3.45 100 1013.3
20260509190033 19 136 0.0 1.6 0.15 5.08 3.35 100 1013.7
20260509184541 19 145 0.0 4.8 0.13 5.05 3.30 100 1013.0
20260509183033 19 129 6.4 11.3 0.13 5.03 3.28 100 1013.0
20260509181533 19 178 3.2 8.0 0.13 5.00 3.25 100 1013.5
20260509180029 19 133 6.4 14.5 0.13 4.95 3.20 100 1013.2
20260509174528 19 155 4.8 11.3 0.23 4.93 3.17 100 1013.3
20260509171537 18 158 6.4 12.9 1.24 4.88 3.12 100 1013.9